Tracking 22879 objects as of 21-Apr-2021
HD Live streaming from Space Station
objects crossing your sky now

STARLINK-1203

Track STARLINK-1203 now!
10-day predictions
STARLINK-1203 is classified as:


NORAD ID: 45202
Int'l Code: 2020-012AA
Perigee: 551.4 km
Apogee: 552.8 km
Inclination: 53.0 °
Period: 95.5 minutes
Semi major axis: 6923 km
RCS: Unknown
Launch date: February 17, 2020
Source: United States (US)
Launch site: AIR FORCE EASTERN TEST RANGE (AFETR)
aabbcc
Your satellite tracking list
Your tracking list is empty




NASA's NSSDC Master Catalog

Two Line Element Set (TLE):
1 45202U 20012AA  21110.56707843  .00002905  00000-0  20979-3 0  9999
2 45202  52.9816 133.9069 0000989  68.5990 291.5104 15.07131679 65025
Source of the keplerian elements: AFSPC